Location: St. Louis
(38.6270°N, 90.1994°W)
Time: 11:33:35
(UTC-06:00)

S-56A Canister/Altair - Pass Details

Date: 01 December 2021
Orbit: 634 x 2499 km, 38.9° (Epoch: 26 January)

Event Time Altitude Azimuth Distance (km) Brightness Sun altitude
Rises 00:35:00 0° 238° (WSW) 5,049 - -70.6°
Reaches altitude 10° 00:38:52 10° 235° (SW) 3,756 - -70.2°
Maximum altitude 00:47:43 58° 160° (SSE) 1,303 - -69.1°
Drops below altitude 10° 00:53:37 10° 82° (E) 2,535 - -68.4°
Sets 00:55:46 0° 78° (ENE) 3,316 - -68.1°
